Alice Springs, Australia

9:24 PM ACST on November 13, 2019 (GMT +0930)
Alice Springs

Weather History for YBAS - October, 2019

Change the Weather History Date:

Wednesday, October 23, 2019

  Actual Average Record
Temperature  
Mean Temperature 76 °F -  
Max Temperature 96 °F 92 °F 102 °F (2012)
Min Temperature 55 °F 63 °F 38 °F (2016)
Cooling Degree Days 10    
Growing Degree Days 26 (Base 50)    
Moisture  
Dew Point 17 °F    
Average Humidity 9    
Maximum Humidity 28    
Minimum Humidity 4    
Precipitation  
Precipitation 0.00 in 0.03 in - ()
Sea Level Pressure  
Sea Level Pressure 29.96 in    
Wind  
Wind Speed 6 mph ()    
Max Wind Speed 14 mph    
Max Gust Speed -    
Visibility 6.2 miles    
Events      
Averages and records for this station are not official NWS values.
T = Trace of Precipitation, MM = Missing Value Source: Averaged Metar Reports

Daily Weather History Graph

Daily Weather History Graph

Search for Another Location

Airport or City:

Astronomy

Oct. 23, 2019 Rise Set
Actual Time 5:55 AM ACST 6:42 PM ACST
Civil Twilight 5:31 AM ACST 7:06 PM ACST
Nautical Twilight 5:04 AM ACST 7:33 PM ACST
Astronomical Twilight 4:36 AM ACST 8:01 PM ACST
Moon 2:16 AM ACST (10/23) 1:32 PM ACST (10/23)
Length of Visible Light 13h 34m
Length of Day
12h 47m
Waning Crescent, 32% of the Moon is Illuminated
Oct 23
Waning Crescent
Oct 28
New
Nov 4
First Quarter
Nov 12
Full
Nov 20
Last Quarter

Hourly Weather History & Observations

Time (ACST) Temp. Dew Point Humidity Pressure Visibility Wind Dir Wind Speed Gust Speed Precip Events Conditions
12:00 AM 65 °F 11 °F 5% 29.97 in - WNW 4.6 mph - -   Clear
12:00 AM 64.4 °F 10.4 °F 12% 30.04 in 6.2 mi WNW 4.6 mph - N/A   Unknown
12:30 AM 64 °F 10 °F 5% 29.97 in - WNW 5.8 mph - -  
12:30 AM 64.4 °F 10.4 °F 12% 30.04 in 6.2 mi WNW 5.8 mph - N/A   Unknown
1:00 AM 64.4 °F 10.4 °F 12% 30.04 in 6.2 mi WNW 5.8 mph - N/A   Unknown
1:30 AM 62.6 °F 12.2 °F 14% 30.04 in 6.2 mi NNW 4.6 mph - N/A   Unknown
2:00 AM 60.8 °F 10.4 °F 14% 30.01 in 6.2 mi NNW 2.3 mph - N/A   Unknown
2:30 AM 59 °F 12 °F 7% 29.94 in - NNW 1.2 mph - -  
2:30 AM 59.0 °F 12.2 °F 16% 30.01 in 6.2 mi NNW 1.2 mph - N/A   Unknown
3:00 AM 60 °F 14 °F 7% 29.94 in - NW 3.5 mph - -   Clear
3:30 AM 58 °F 15 °F 9% 29.93 in - NW 1.2 mph - -  
3:30 AM 59.0 °F 15.8 °F 19% 30.01 in 6.2 mi NW 1.2 mph - N/A   Unknown
4:30 AM 57.2 °F 10.4 °F 16% 30.01 in 6.2 mi West 5.8 mph - N/A   Unknown
5:00 AM 57.2 °F 10.4 °F 16% 30.04 in 6.2 mi WNW 4.6 mph - N/A   Unknown
5:30 AM 58 °F 12 °F 7% 29.97 in - NW 5.8 mph - -  
6:00 AM 57 °F 12 °F 8% 29.98 in - NW 4.6 mph - -   Clear
6:00 AM 57.2 °F 12.2 °F 17% 30.04 in 6.2 mi NW 4.6 mph - N/A   Unknown
6:30 AM 57 °F 13 °F 8% 29.99 in - WNW 4.6 mph - -  
6:30 AM 57.2 °F 12.2 °F 17% 30.06 in 6.2 mi WNW 4.6 mph - N/A   Unknown
7:00 AM 64.4 °F 12.2 °F 13% 30.06 in 6.2 mi WNW 3.5 mph - N/A   Unknown
7:30 AM 68.0 °F 12.2 °F 12% 30.06 in 6.2 mi WSW 1.2 mph - N/A   Unknown
8:30 AM 80 °F 13 °F 4% 29.99 in - East 9.2 mph - -  
8:30 AM 80.6 °F 14.0 °F 8% 30.06 in 6.2 mi East 9.2 mph - N/A   Unknown
9:00 AM 82 °F 15 °F 4% 29.98 in - East 13.8 mph - -   Clear
9:30 AM 84 °F 13 °F 4% 29.98 in - East 12.7 mph - -  
9:30 AM 84.2 °F 14.0 °F 7% 30.04 in - East 12.7 mph - N/A   Clear
10:00 AM 86.0 °F 14.0 °F 7% 30.04 in - East 10.4 mph - N/A   Clear
10:30 AM 87.8 °F 19.4 °F 8% 30.04 in - East 13.8 mph - N/A   Clear
11:00 AM 89.6 °F 17.6 °F 7% 30.01 in - East 12.7 mph - N/A   Clear
11:30 AM 90 °F 15 °F 4% 29.93 in - NE 8.1 mph - -  
11:30 AM 89.6 °F 14.0 °F 6% 30.01 in - NE 8.1 mph - N/A   Clear
12:00 PM 91 °F 18 °F 4% 29.92 in - North 5.8 mph - -   Clear
12:00 PM 91.4 °F 17.6 °F 7% 29.98 in 6.2 mi North 5.8 mph - N/A   Unknown
12:30 PM 91 °F 22 °F 4% 29.90 in - SW 8.1 mph - -  
12:30 PM 91.4 °F 21.2 °F 8% 29.98 in 6.2 mi SW 8.1 mph - N/A   Unknown
1:00 PM 93.2 °F 23.0 °F 8% 29.95 in 6.2 mi East 6.9 mph - N/A   Unknown
1:30 PM 93.2 °F 19.4 °F 7% 29.95 in 6.2 mi NE 9.2 mph - N/A   Unknown
2:00 PM 95.0 °F 21.2 °F 7% 29.92 in 6.2 mi ENE 8.1 mph - N/A   Unknown
2:30 PM 95.0 °F 21.2 °F 7% 29.89 in 6.2 mi SE 5.8 mph - N/A   Unknown
3:00 PM 96 °F 22 °F 4% 29.82 in - South 13.8 mph - -   Clear
3:00 PM 95.0 °F 21.2 °F 7% 29.89 in 6.2 mi South 13.8 mph - N/A   Unknown
3:30 PM 95 °F 22 °F 4% 29.81 in - SE 5.8 mph - -  
3:30 PM 95.0 °F 21.2 °F 7% 29.89 in 6.2 mi SE 5.8 mph - N/A   Unknown
4:00 PM 95.0 °F 21.2 °F 7% 29.89 in 6.2 mi SW 11.5 mph - N/A   Unknown
4:30 PM 93.2 °F 21.2 °F 7% 29.86 in 6.2 mi South 5.8 mph - N/A   Unknown
5:30 PM 94 °F 21 °F 4% 29.81 in - South 11.5 mph - -  
5:30 PM 95.0 °F 21.2 °F 7% 29.89 in 6.2 mi South 11.5 mph - N/A   Unknown
6:00 PM 93 °F 20 °F 4% 29.81 in - East 5.8 mph - -   Clear
6:30 PM 91 °F 18 °F 4% 29.82 in - South 8.1 mph - -  
6:30 PM 91.4 °F 17.6 °F 7% 29.89 in 6.2 mi South 8.1 mph - N/A   Unknown
7:00 PM 86.0 °F 17.6 °F 8% 29.92 in 6.2 mi South 6.9 mph - N/A   Unknown
7:30 PM 84.2 °F 19.4 °F 9% 29.92 in 6.2 mi South 6.9 mph - N/A   Unknown
8:00 PM 82.4 °F 17.6 °F 9% 29.92 in 6.2 mi South 6.9 mph - N/A   Unknown
8:30 PM 80 °F 19 °F 4% 29.87 in - South 6.9 mph - -  
8:30 PM 80.6 °F 19.4 °F 10% 29.95 in 6.2 mi South 6.9 mph - N/A   Unknown
9:00 PM 78 °F 17 °F 4% 29.88 in - South 8.1 mph - -   Clear
9:30 PM 74 °F 17 °F 5% 29.89 in - SSE 4.6 mph - -  
9:30 PM 75.2 °F 15.8 °F 11% 29.95 in 6.2 mi SSE 4.6 mph - N/A   Unknown
10:00 PM 75.2 °F 15.8 °F 11% 29.98 in 6.2 mi ENE 5.8 mph - N/A   Unknown
10:30 PM 77.0 °F 35.6 °F 22% 29.98 in 6.2 mi ENE 6.9 mph - N/A   Unknown
11:00 PM 77.0 °F 41.0 °F 28% 29.98 in 6.2 mi NNE 4.6 mph - N/A   Unknown
11:30 PM 73 °F 35 °F 15% 29.90 in - NE 4.6 mph - -  
11:30 PM 73.4 °F 35.6 °F 25% 29.98 in 6.2 mi NE 4.6 mph - N/A   Unknown